EZY9002 EGKK-EGCC

Flight info

Callsign EZY9002
Flight time 0h 34m
Altitude 24000
Route LAM N57 WELIN T420 ELVOS
Aircraft A320/M-SDE3FGHIRWY/LB1

Departure

Time 2026-05-01 13:11
Airport London Gatwick Airport (EGKK)

Arrival

Time 2026-05-01 13:46
Airport Manchester Airport (EGCC)
Time Latitude Longitude Altitude Speed Heading
2026-05-01 12:40 51.15580 -0.17676 205 ft 0 kts 348°
2026-05-01 12:58 51.15566 -0.17671 217 ft 2 kts 348°
2026-05-01 12:58 51.15550 -0.17666 213 ft 2 kts 349°
2026-05-01 12:59 51.15525 -0.17636 206 ft 2 kts 285°
2026-05-01 12:59 51.15522 -0.17610 206 ft 2 kts 266°
2026-05-01 12:59 51.15522 -0.17600 208 ft 0 kts 260°
2026-05-01 13:01 51.15510 -0.17697 206 ft 8 kts 258°
2026-05-01 13:02 51.15499 -0.17777 209 ft 7 kts 257°
2026-05-01 13:07 51.14677 -0.21375 211 ft 7 kts 152°
2026-05-01 13:07 51.14628 -0.21328 206 ft 9 kts 159°
2026-05-01 13:07 51.14616 -0.21323 204 ft 0 kts 165°
2026-05-01 13:10 51.14587 -0.21309 213 ft 10 kts 162°
2026-05-01 13:10 51.14525 -0.21235 209 ft 13 kts 116°
2026-05-01 13:10 51.14525 -0.21090 217 ft 13 kts 76°
2026-05-01 13:10 51.14555 -0.20867 215 ft 47 kts 78°
2026-05-01 13:11 51.14682 -0.19955 209 ft 116 kts 78°
2026-05-01 13:11 51.14900 -0.18418 223 ft 165 kts 79°
2026-05-01 13:11 51.15158 -0.16637 924 ft 164 kts 82°
2026-05-01 13:11 51.15397 -0.14854 1584 ft 172 kts 82°
2026-05-01 13:12 51.15661 -0.12852 2028 ft 193 kts 81°
2026-05-01 13:12 51.15957 -0.10637 2344 ft 216 kts 82°
2026-05-01 13:12 51.16297 -0.08157 2711 ft 242 kts 77°
2026-05-01 13:12 51.17070 -0.05627 3179 ft 268 kts 54°
2026-05-01 13:13 51.18243 -0.03251 3998 ft 276 kts 52°
2026-05-01 13:13 51.19704 -0.01232 4945 ft 284 kts 28°
2026-05-01 13:13 51.21615 -0.00375 5840 ft 290 kts
2026-05-01 13:13 51.23654 -0.00186 6754 ft 296 kts
2026-05-01 13:14 51.25726 -0.00078 7607 ft 300 kts
2026-05-01 13:14 51.27813 -0.00310 8505 ft 304 kts 345°
2026-05-01 13:14 51.29819 -0.01341 9438 ft 306 kts 337°
2026-05-01 13:14 51.31800 -0.02590 10327 ft 310 kts 336°
2026-05-01 13:15 51.33880 -0.03941 10673 ft 334 kts 336°
2026-05-01 13:15 51.36107 -0.05397 10960 ft 357 kts 336°
2026-05-01 13:15 51.38447 -0.06927 11532 ft 367 kts 336°
2026-05-01 13:15 51.40833 -0.08486 12236 ft 373 kts 336°
2026-05-01 13:16 51.43220 -0.10047 12922 ft 378 kts 336°
2026-05-01 13:16 51.45653 -0.11637 13627 ft 383 kts 336°
2026-05-01 13:16 51.48131 -0.13255 14294 ft 388 kts 336°
2026-05-01 13:17 51.55356 -0.19400 16205 ft 398 kts 328°
2026-05-01 13:17 51.57756 -0.21643 16849 ft 402 kts 327°
2026-05-01 13:18 51.62603 -0.26209 18120 ft 410 kts 327°
2026-05-01 13:18 51.65108 -0.28570 18707 ft 414 kts 327°
2026-05-01 13:18 51.67573 -0.30890 19232 ft 417 kts 327°
2026-05-01 13:18 51.70124 -0.33282 19768 ft 420 kts 327°
2026-05-01 13:19 51.72654 -0.35654 20299 ft 423 kts 327°
2026-05-01 13:19 51.75214 -0.38050 20823 ft 426 kts 328°
2026-05-01 13:19 51.80378 -0.42899 21844 ft 432 kts 327°
2026-05-01 13:20 51.82985 -0.45362 22359 ft 435 kts 327°
2026-05-01 13:20 51.85603 -0.47841 22849 ft 438 kts 327°
2026-05-01 13:20 51.88249 -0.50347 23329 ft 441 kts 327°
2026-05-01 13:21 51.93581 -0.55395 24086 ft 446 kts 327°
2026-05-01 13:21 51.96261 -0.57936 24164 ft 447 kts 327°
2026-05-01 13:21 51.98947 -0.60488 24168 ft 447 kts 327°
2026-05-01 13:21 52.00722 -0.62179 24162 ft 447 kts 327°
2026-05-01 13:22 52.03400 -0.64737 24164 ft 447 kts 327°
2026-05-01 13:22 52.06114 -0.67333 24167 ft 447 kts 327°
2026-05-01 13:22 52.08789 -0.69894 24166 ft 446 kts 327°
2026-05-01 13:22 52.11469 -0.72464 24166 ft 446 kts 327°
2026-05-01 13:23 52.14141 -0.75025 24165 ft 446 kts 327°
2026-05-01 13:23 52.16817 -0.77595 24170 ft 446 kts 327°
2026-05-01 13:23 52.19489 -0.80166 24165 ft 446 kts 327°
2026-05-01 13:23 52.22161 -0.82744 24166 ft 446 kts 327°
2026-05-01 13:24 52.24833 -0.85326 24161 ft 446 kts 327°
2026-05-01 13:24 52.27493 -0.87924 24161 ft 446 kts 326°
2026-05-01 13:24 52.30148 -0.90555 24159 ft 446 kts 326°
2026-05-01 13:25 52.35409 -0.95819 24163 ft 446 kts 326°
2026-05-01 13:25 52.38059 -0.98474 24169 ft 446 kts 326°
2026-05-01 13:25 52.40700 -1.01120 24158 ft 446 kts 326°
2026-05-01 13:25 52.43347 -1.03774 24126 ft 444 kts 326°
2026-05-01 13:26 52.45961 -1.06397 23902 ft 439 kts 326°
2026-05-01 13:26 52.48557 -1.09001 23662 ft 436 kts 326°
2026-05-01 13:26 52.51111 -1.11567 23395 ft 434 kts 325°
2026-05-01 13:26 52.53681 -1.14159 23143 ft 432 kts 325°
2026-05-01 13:27 52.56236 -1.16736 22841 ft 427 kts 326°
2026-05-01 13:27 52.58754 -1.19274 22343 ft 422 kts 326°
2026-05-01 13:27 52.63759 -1.24326 21185 ft 418 kts 326°
2026-05-01 13:28 52.68651 -1.29273 20135 ft 413 kts 326°
2026-05-01 13:28 52.71118 -1.31776 19644 ft 410 kts 326°
2026-05-01 13:29 52.75929 -1.36677 18637 ft 405 kts 326°
2026-05-01 13:29 52.80682 -1.41537 17647 ft 400 kts 326°
2026-05-01 13:30 52.89977 -1.51077 15783 ft 388 kts 326°
2026-05-01 13:31 52.94535 -1.55773 14912 ft 383 kts 326°
2026-05-01 13:31 53.01382 -1.62848 12865 ft 380 kts 326°
2026-05-01 13:32 53.05596 -1.67590 12268 ft 345 kts 314°
2026-05-01 13:33 53.10014 -1.75913 11303 ft 310 kts 307°
2026-05-01 13:33 53.12806 -1.81343 10507 ft 304 kts 307°
2026-05-01 13:34 53.15539 -1.86647 9646 ft 301 kts 307°
2026-05-01 13:34 53.18240 -1.91908 9133 ft 297 kts 307°
2026-05-01 13:35 53.20913 -1.97140 9151 ft 288 kts 307°
2026-05-01 13:35 53.22364 -1.99328 9157 ft 278 kts 329°
2026-05-01 13:35 53.26059 -1.99692 9161 ft 273 kts 18°
2026-05-01 13:36 53.27874 -1.98718 9153 ft 274 kts 20°
2026-05-01 13:36 53.29673 -1.97695 9132 ft 273 kts 20°
2026-05-01 13:36 53.33241 -1.95615 8484 ft 269 kts 21°
2026-05-01 13:37 53.35004 -1.94593 8051 ft 268 kts 20°
2026-05-01 13:37 53.36751 -1.93566 7665 ft 261 kts 20°
2026-05-01 13:37 53.38402 -1.92604 7528 ft 244 kts 20°
2026-05-01 13:37 53.39960 -1.91690 7402 ft 231 kts 20°
2026-05-01 13:38 53.42888 -1.89961 6965 ft 220 kts 20°
2026-05-01 13:38 53.44352 -1.89282 6640 ft 217 kts
2026-05-01 13:38 53.45778 -1.89867 6381 ft 211 kts 328°
2026-05-01 13:39 53.47036 -1.91177 5958 ft 215 kts 322°
2026-05-01 13:39 53.48031 -1.92363 5609 ft 217 kts 321°
2026-05-01 13:39 53.49263 -1.93870 5193 ft 221 kts 320°
2026-05-01 13:39 53.50531 -1.95418 4929 ft 218 kts 320°
2026-05-01 13:40 53.51551 -1.97118 4918 ft 199 kts 291°
2026-05-01 13:40 53.51771 -1.99299 4925 ft 188 kts 252°
2026-05-01 13:40 53.51154 -2.01108 4821 ft 177 kts 217°
2026-05-01 13:40 53.50114 -2.02187 4520 ft 176 kts 201°
2026-05-01 13:41 53.48915 -2.02760 4208 ft 180 kts 193°
2026-05-01 13:41 53.47681 -2.03277 3735 ft 190 kts 193°
2026-05-01 13:41 53.46451 -2.04112 3488 ft 195 kts 222°
2026-05-01 13:41 53.45673 -2.05950 3297 ft 192 kts 234°
2026-05-01 13:42 53.44895 -2.07694 3031 ft 183 kts 229°
2026-05-01 13:42 53.44130 -2.09294 2805 ft 166 kts 228°
2026-05-01 13:42 53.43438 -2.10739 2561 ft 152 kts 228°
2026-05-01 13:42 53.42800 -2.12067 2390 ft 146 kts 229°
2026-05-01 13:43 53.42181 -2.13356 2195 ft 139 kts 228°
2026-05-01 13:43 53.41571 -2.14625 2021 ft 139 kts 230°
2026-05-01 13:43 53.40975 -2.15865 1833 ft 136 kts 229°
2026-05-01 13:43 53.40387 -2.17089 1642 ft 136 kts 229°
2026-05-01 13:44 53.39796 -2.18316 1465 ft 133 kts 228°
2026-05-01 13:44 53.39208 -2.19540 1280 ft 135 kts 230°
2026-05-01 13:44 53.38624 -2.20751 1102 ft 135 kts 230°
2026-05-01 13:44 53.38043 -2.21957 906 ft 133 kts 231°
2026-05-01 13:45 53.37453 -2.23183 707 ft 136 kts 232°
2026-05-01 13:45 53.36865 -2.24414 523 ft 132 kts 232°
2026-05-01 13:45 53.36289 -2.25602 312 ft 132 kts 233°
2026-05-01 13:45 53.35746 -2.26731 250 ft 100 kts 231°
2026-05-01 13:46 53.35443 -2.27365 242 ft 62 kts 231°
2026-05-01 13:46 53.35272 -2.27789 236 ft 36 kts 252°
2026-05-01 13:46 53.35235 -2.28110 234 ft 11 kts 262°
2026-05-01 13:46 53.35241 -2.28208 233 ft 8 kts 311°
2026-05-01 13:47 53.35250 -2.28219 233 ft 0 kts 323°
2026-05-01 13:47 53.35262 -2.28227 232 ft 2 kts 343°
2026-05-01 13:47 53.35269 -2.28227 232 ft 0 kts 357°
2026-05-01 13:47 53.35286 -2.28223 232 ft 8 kts 13°
2026-05-01 13:48 53.35328 -2.28194 233 ft 5 kts 22°
2026-05-01 13:48 53.35357 -2.28177 233 ft 3 kts 18°
2026-05-01 13:48 53.35373 -2.28169 236 ft 1 kts 14°
2026-05-01 13:48 53.35377 -2.28168 235 ft 1 kts 12°
2026-05-01 13:49 53.35402 -2.28163 234 ft 4 kts
2026-05-01 13:49 53.35423 -2.28159 234 ft 4 kts
2026-05-01 13:49 53.35454 -2.28151 237 ft 4 kts 11°
2026-05-01 13:49 53.35477 -2.28139 235 ft 5 kts 19°
2026-05-01 13:50 53.35519 -2.28103 237 ft 6 kts 38°
2026-05-01 13:50 53.35558 -2.28039 237 ft 11 kts 47°
2026-05-01 13:50 53.35604 -2.27946 238 ft 9 kts 52°
2026-05-01 13:50 53.35649 -2.27892 238 ft 7 kts 13°
2026-05-01 13:51 53.35694 -2.27883 239 ft 6 kts
2026-05-01 13:51 53.35725 -2.27878 239 ft 0 kts
2026-05-01 13:52 53.35728 -2.27878 239 ft 2 kts
2026-05-01 13:52 53.35729 -2.27878 239 ft 0 kts
2026-05-01 13:55 53.35730 -2.27878 239 ft 1 kts
2026-05-01 13:56 53.35802 -2.27866 240 ft 14 kts
2026-05-01 13:56 53.35894 -2.27850 241 ft 12 kts
2026-05-01 13:56 53.35973 -2.27836 241 ft 10 kts
2026-05-01 13:56 53.36039 -2.27837 242 ft 9 kts 345°
2026-05-01 13:57 53.36105 -2.27917 242 ft 15 kts 317°
2026-05-01 13:57 53.36181 -2.28051 241 ft 17 kts 314°
2026-05-01 13:57 53.36266 -2.28196 241 ft 18 kts 316°
2026-05-01 13:57 53.36361 -2.28346 241 ft 20 kts 316°
2026-05-01 13:58 53.36459 -2.28513 241 ft 17 kts 315°
2026-05-01 13:58 53.36544 -2.28656 241 ft 17 kts 311°
2026-05-01 13:58 53.36602 -2.28754 240 ft 8 kts 339°
2026-05-01 13:58 53.36647 -2.28740 241 ft 4 kts 33°
2026-05-01 13:59 53.36647 -2.28739 241 ft 0 kts 33°
2026-05-01 13:59 53.36692 -2.28675 241 ft 12 kts 42°
2026-05-01 13:59 53.36753 -2.28617 242 ft 9 kts 351°
2026-05-01 14:00 53.36794 -2.28685 242 ft 8 kts 314°
2026-05-01 14:00 53.36801 -2.28697 242 ft 0 kts 314°